Time,TemperatureF,DewpointF,PressureIn,WindDirection,WindDirectionDegrees,WindSpeedMPH,WindSpeedGustMPH,Humidity,HourlyPrecipIn,Conditions,Clouds,dailyrainin,SoftwareType,DateUTC
2013-09-13 00:00:00,73.0,73.0,29.75,West,260,9.0,11.0,100,-99.99,,,-99.99,,2013-09-13 04:00:00,
2013-09-13 00:24:00,73.0,73.0,29.75,West,260,9.0,11.0,100,-99.99,,,-99.99,,2013-09-13 04:24:00,
2013-09-13 00:34:00,73.0,73.0,29.75,West,260,9.0,11.0,100,-99.99,,,-99.99,,2013-09-13 04:34:00,
2013-09-13 00:44:00,73.0,73.0,29.75,West,260,9.0,11.0,100,-99.99,,,-99.99,,2013-09-13 04:44:00,
2013-09-13 00:54:00,73.0,73.0,29.75,West,260,9.0,11.0,100,-99.99,,,-99.99,,2013-09-13 04:54:00,
2013-09-13 01:00:00,73.0,73.0,29.75,SW,230,10.0,11.0,100,-99.99,,,-99.99,,2013-09-13 05:00:00,
2013-09-13 01:22:00,73.0,73.0,29.75,SW,230,10.0,11.0,100,-99.99,,,-99.99,,2013-09-13 05:22:00,
2013-09-13 01:33:00,73.0,73.0,29.75,SW,230,10.0,11.0,100,-99.99,,,-99.99,,2013-09-13 05:33:00,
2013-09-13 01:43:00,73.0,73.0,29.75,SW,230,10.0,11.0,100,-99.99,,,-99.99,,2013-09-13 05:43:00,
2013-09-13 01:53:00,73.0,73.0,29.75,SW,230,10.0,11.0,100,-99.99,,,-99.99,,2013-09-13 05:53:00,
2013-09-13 02:00:00,73.0,73.0,29.73,West,260,8.0,9.0,100,-99.99,,,-99.99,,2013-09-13 06:00:00,
2013-09-13 02:22:00,73.0,73.0,29.73,West,260,8.0,9.0,100,-99.99,,,-99.99,,2013-09-13 06:22:00,
2013-09-13 02:32:00,73.0,73.0,29.73,West,260,8.0,9.0,100,-99.99,,,-99.99,,2013-09-13 06:32:00,
2013-09-13 02:42:00,73.0,73.0,29.73,West,260,8.0,9.0,100,-99.99,,,-99.99,,2013-09-13 06:42:00,
2013-09-13 02:52:00,73.0,73.0,29.73,West,260,8.0,9.0,100,-99.99,,,-99.99,,2013-09-13 06:52:00,
2013-09-13 03:00:00,72.0,72.0,29.72,SW,230,8.0,10.0,100,-99.99,,,-99.99,,2013-09-13 07:00:00,
2013-09-13 03:22:00,72.0,72.0,29.72,SW,230,8.0,10.0,100,-99.99,,,-99.99,,2013-09-13 07:22:00,
2013-09-13 03:33:00,72.0,72.0,29.72,SW,230,8.0,10.0,100,-99.99,,,-99.99,,2013-09-13 07:33:00,
2013-09-13 03:42:00,72.0,72.0,29.72,SW,230,8.0,10.0,100,-99.99,,,-99.99,,2013-09-13 07:42:00,
2013-09-13 03:52:00,72.0,72.0,29.72,SW,230,8.0,10.0,100,-99.99,,,-99.99,,2013-09-13 07:52:00,
2013-09-13 04:00:00,72.0,72.0,29.72,West,280,8.0,8.0,100,-99.99,,,-99.99,,2013-09-13 08:00:00,
2013-09-13 04:22:00,72.0,72.0,29.72,West,280,8.0,8.0,100,-99.99,,,-99.99,,2013-09-13 08:22:00,
2013-09-13 04:32:00,72.0,72.0,29.72,West,280,8.0,8.0,100,-99.99,,,-99.99,,2013-09-13 08:32:00,
2013-09-13 04:41:00,72.0,72.0,29.72,West,280,8.0,8.0,100,-99.99,,,-99.99,,2013-09-13 08:41:00,
2013-09-13 04:52:00,72.0,72.0,29.72,West,280,8.0,8.0,100,-99.99,,,-99.99,,2013-09-13 08:52:00,
2013-09-13 05:00:00,71.0,71.0,29.72,West,270,8.0,9.0,100,-99.99,,,-99.99,,2013-09-13 09:00:00,
2013-09-13 05:21:00,71.0,71.0,29.72,West,270,8.0,9.0,100,-99.99,,,-99.99,,2013-09-13 09:21:00,
2013-09-13 05:33:00,71.0,71.0,29.72,West,270,8.0,9.0,100,-99.99,,,-99.99,,2013-09-13 09:33:00,
2013-09-13 05:43:00,71.0,71.0,29.72,West,270,8.0,9.0,100,-99.99,,,-99.99,,2013-09-13 09:43:00,
2013-09-13 05:53:00,71.0,71.0,29.72,West,270,8.0,9.0,100,-99.99,,,-99.99,,2013-09-13 09:53:00,
2013-09-13 06:00:00,71.0,71.0,29.73,WNW,300,8.0,9.0,100,-99.99,,,-99.99,,2013-09-13 10:00:00,
2013-09-13 06:22:00,71.0,71.0,29.73,WNW,300,8.0,9.0,100,-99.99,,,-99.99,,2013-09-13 10:22:00,
2013-09-13 06:33:00,71.0,71.0,29.73,WNW,300,8.0,9.0,100,-99.99,,,-99.99,,2013-09-13 10:33:00,
2013-09-13 06:42:00,71.0,71.0,29.73,WNW,300,8.0,9.0,100,-99.99,,,-99.99,,2013-09-13 10:42:00,
2013-09-13 06:52:00,71.0,71.0,29.73,WNW,300,8.0,9.0,100,-99.99,,,-99.99,,2013-09-13 10:52:00,
2013-09-13 07:00:00,70.0,70.0,29.74,NNW,340,14.0,16.0,100,-99.99,,,-99.99,,2013-09-13 11:00:00,
2013-09-13 07:22:00,70.0,70.0,29.74,NNW,340,14.0,16.0,100,-99.99,,,-99.99,,2013-09-13 11:22:00,
2013-09-13 07:33:00,70.0,70.0,29.74,NNW,340,14.0,16.0,100,-99.99,,,-99.99,,2013-09-13 11:33:00,
2013-09-13 07:42:00,70.0,70.0,29.74,NNW,340,14.0,16.0,100,-99.99,,,-99.99,,2013-09-13 11:42:00,
2013-09-13 07:52:00,70.0,70.0,29.74,NNW,340,14.0,16.0,100,-99.99,,,-99.99,,2013-09-13 11:52:00,
2013-09-13 08:21:00,70.0,69.0,29.76,North,360,13.0,15.0,95,-99.99,,,-99.99,,2013-09-13 12:21:00,
2013-09-13 08:32:00,70.0,69.0,29.76,North,360,13.0,15.0,95,-99.99,,,-99.99,,2013-09-13 12:32:00,
2013-09-13 08:41:00,70.0,69.0,29.76,North,360,13.0,15.0,95,-99.99,,,-99.99,,2013-09-13 12:41:00,
2013-09-13 10:00:00,69.0,69.0,29.79,NW,310,11.0,14.0,100,-99.99,,,-99.99,,2013-09-13 14:00:00,
2013-09-13 10:21:00,69.0,69.0,29.79,NW,310,11.0,14.0,100,-99.99,,,-99.99,,2013-09-13 14:21:00,
2013-09-13 10:32:00,69.0,69.0,29.79,NW,310,11.0,14.0,100,-99.99,,,-99.99,,2013-09-13 14:32:00,
2013-09-13 10:42:00,69.0,69.0,29.79,NW,310,11.0,14.0,100,-99.99,,,-99.99,,2013-09-13 14:42:00,
2013-09-13 10:52:00,69.0,69.0,29.79,NW,310,11.0,14.0,100,-99.99,,,-99.99,,2013-09-13 14:52:00,
2013-09-13 12:00:00,71.0,66.0,29.79,NW,320,14.0,17.0,83,-99.99,,,-99.99,,2013-09-13 16:00:00,
2013-09-13 12:23:00,71.0,66.0,29.79,NW,320,14.0,17.0,83,-99.99,,,-99.99,,2013-09-13 16:23:00,
2013-09-13 12:32:00,71.0,66.0,29.79,NW,320,14.0,17.0,83,-99.99,,,-99.99,,2013-09-13 16:32:00,
2013-09-13 12:43:00,71.0,66.0,29.79,NW,320,14.0,17.0,83,-99.99,,,-99.99,,2013-09-13 16:43:00,
2013-09-13 12:54:00,71.0,66.0,29.79,NW,320,14.0,17.0,83,-99.99,,,-99.99,,2013-09-13 16:54:00,
2013-09-13 13:00:00,73.0,64.0,29.78,WNW,300,18.0,21.0,73,-99.99,,,-99.99,,2013-09-13 17:00:00,
2013-09-13 13:23:00,73.0,64.0,29.78,WNW,300,18.0,21.0,73,-99.99,,,-99.99,,2013-09-13 17:23:00,
2013-09-13 13:33:00,73.0,64.0,29.78,WNW,300,18.0,21.0,73,-99.99,,,-99.99,,2013-09-13 17:33:00,
2013-09-13 13:43:00,73.0,64.0,29.78,WNW,300,18.0,21.0,73,-99.99,,,-99.99,,2013-09-13 17:43:00,
2013-09-13 13:52:00,73.0,64.0,29.78,WNW,300,18.0,21.0,73,-99.99,,,-99.99,,2013-09-13 17:52:00,
2013-09-13 14:00:00,74.0,62.0,29.77,WNW,290,20.0,23.0,66,-99.99,,,-99.99,,2013-09-13 18:00:00,
2013-09-13 14:22:00,74.0,62.0,29.77,WNW,290,20.0,23.0,66,-99.99,,,-99.99,,2013-09-13 18:22:00,
2013-09-13 14:32:00,74.0,62.0,29.77,WNW,290,20.0,23.0,66,-99.99,,,-99.99,,2013-09-13 18:32:00,
2013-09-13 14:42:00,74.0,62.0,29.77,WNW,290,20.0,23.0,66,-99.99,,,-99.99,,2013-09-13 18:42:00,
2013-09-13 14:52:00,74.0,62.0,29.77,WNW,290,20.0,23.0,66,-99.99,,,-99.99,,2013-09-13 18:52:00,
2013-09-13 23:00:00,67.0,60.0,29.91,NW,310,18.0,22.0,79,-99.99,,,-99.99,,2013-09-14 03:00:00,
2013-09-13 23:54:00,67.0,60.0,29.91,NW,310,18.0,22.0,79,-99.99,,,-99.99,,2013-09-14 03:54:00,